TimePDT,TemperatureF,Dew PointF,Humidity,Sea Level PressureIn,VisibilityMPH,Wind Direction,Wind SpeedMPH,Gust SpeedMPH,PrecipitationIn,Events,Conditions,WindDirDegrees,DateUTC
12:10 AM,69.8,57.2,64,29.92,10.0,Calm,Calm,-,N/A,,Mostly Cloudy,0,2013-09-03 07:10:00
12:46 AM,66.2,60.8,83,29.92,10.0,WNW,3.5,-,0.01,Rain-Thunderstorm,Light Thunderstorms and Rain,290,2013-09-03 07:46:00
12:53 AM,66.0,60.1,81,29.93,10.0,Calm,Calm,-,0.01,Rain-Thunderstorm,Light Thunderstorms and Rain,0,2013-09-03 07:53:00
1:05 AM,64.4,60.8,88,29.93,10.0,Calm,Calm,-,0.00,Thunderstorm,Overcast,0,2013-09-03 08:05:00
1:27 AM,66.2,60.8,83,29.94,10.0,Calm,Calm,-,0.00,Thunderstorm,Overcast,0,2013-09-03 08:27:00
1:53 AM,66.0,61.0,84,29.94,10.0,NNW,3.5,-,0.01,Rain,Light Rain,330,2013-09-03 08:53:00
2:07 AM,66.2,60.8,83,29.95,10.0,Calm,Calm,-,0.00,Rain-Thunderstorm,Light Rain,0,2013-09-03 09:07:00
2:22 AM,66.2,57.2,73,29.95,10.0,Calm,Calm,-,0.01,Rain,Light Rain,0,2013-09-03 09:22:00
2:53 AM,64.0,59.0,84,29.95,10.0,WSW,3.5,-,0.01,,Overcast,250,2013-09-03 09:53:00
3:53 AM,63.0,57.9,84,29.95,10.0,WNW,5.8,-,0.01,Rain,Light Rain,290,2013-09-03 10:53:00
4:53 AM,62.1,59.0,90,29.95,10.0,ENE,3.5,-,0.08,Rain,Light Rain,60,2013-09-03 11:53:00
5:53 AM,62.1,59.0,90,29.95,10.0,Calm,Calm,-,0.01,,Overcast,0,2013-09-03 12:53:00
6:53 AM,61.0,59.0,93,29.95,10.0,Calm,Calm,-,N/A,,Scattered Clouds,0,2013-09-03 13:53:00
7:26 AM,60.8,59.0,94,29.97,10.0,Calm,Calm,-,N/A,,Mostly Cloudy,0,2013-09-03 14:26:00
7:53 AM,63.0,60.1,90,29.97,10.0,Calm,Calm,-,N/A,,Mostly Cloudy,0,2013-09-03 14:53:00
8:53 AM,64.9,59.0,81,29.97,10.0,West,3.5,-,N/A,,Mostly Cloudy,270,2013-09-03 15:53:00
9:53 AM,66.9,57.9,73,29.99,10.0,Calm,Calm,-,N/A,,Overcast,0,2013-09-03 16:53:00
10:53 AM,68.0,57.9,70,29.99,10.0,Calm,Calm,-,N/A,,Overcast,0,2013-09-03 17:53:00
11:53 AM,71.1,59.0,66,29.99,10.0,Calm,Calm,-,N/A,,Mostly Cloudy,0,2013-09-03 18:53:00
12:53 PM,73.0,59.0,61,29.99,10.0,Calm,Calm,-,N/A,,Partly Cloudy,0,2013-09-03 19:53:00
1:53 PM,75.0,52.0,44,29.99,10.0,SW,3.5,-,N/A,,Partly Cloudy,220,2013-09-03 20:53:00
2:53 PM,75.9,55.9,50,29.98,10.0,SSW,3.5,-,N/A,,Clear,210,2013-09-03 21:53:00
3:53 PM,78.1,54.0,43,29.97,10.0,SW,3.5,-,N/A,,Clear,230,2013-09-03 22:53:00
4:53 PM,78.1,55.0,45,29.96,10.0,Variable,4.6,-,N/A,,Partly Cloudy,0,2013-09-03 23:53:00
5:53 PM,78.1,53.1,42,29.95,10.0,Calm,Calm,-,N/A,,Scattered Clouds,0,2013-09-04 00:53:00
6:53 PM,78.1,53.1,42,29.95,10.0,Calm,Calm,-,N/A,,Clear,0,2013-09-04 01:53:00
7:53 PM,75.0,55.0,50,29.96,10.0,Calm,Calm,-,N/A,,Clear,0,2013-09-04 02:53:00
8:53 PM,71.1,57.0,61,29.98,10.0,NNW,6.9,-,N/A,,Clear,340,2013-09-04 03:53:00
9:53 PM,69.1,57.0,65,29.99,10.0,NNW,4.6,-,N/A,,Clear,340,2013-09-04 04:53:00
10:53 PM,66.9,57.9,73,29.99,10.0,NNW,4.6,-,N/A,,Clear,330,2013-09-04 05:53:00
11:53 PM,66.0,57.9,75,29.99,10.0,NNW,4.6,-,N/A,,Clear,330,2013-09-04 06:53:00